Location: Arcusa
(42.3167°N, 0.0833°W)
Time: 12:01:01
(UTC+00:00)

Okean O Rocket - Pass Details

Date: 25 January 2020
Orbit: 623 x 645 km, 98.2° (Epoch: 20 February)

Event Time Altitude Azimuth Distance (km) Brightness Sun altitude
Rises 06:20:45 0° 5° (N) 2,962 4.9 -11.2°
Reaches altitude 10° 06:23:05 10° 358° (N) 2,045 4.0 -10.8°
Maximum altitude 06:27:12 39° 290° (WNW) 972 2.1 -10.1°
Drops below altitude 10° 06:31:17 10° 222° (SW) 2,020 4.0 -9.4°
Sets 06:33:34 0° 214° (SW) 2,920 4.8 -9.0°
